Location: Newark
(48.3831°N, 4.1956°E)
Time: 14:34:21
(UTC+00:00)

Envisat - Pass Details

Date: 16 November 2019
Orbit: 764 x 766 km, 98.1° (Epoch: 04 December)

Event Time Altitude Azimuth Distance (km) Brightness Sun altitude
Rises 19:08:21 0° 215° (SW) 3,222 6.6 -30.5°
Reaches altitude 10° 19:11:42 10° 239° (WSW) 2,302 6.1 -31.1°
Maximum altitude 19:14:31 15° 273° (W) 1,990 5.9 -31.5°
Drops below altitude 10° 19:17:20 10° 307° (NW) 2,311 6.1 -32.0°
Sets 19:20:44 0° 331° (NNW) 3,243 6.7 -32.5°
